{"data":{"norad_id":56058,"intl_designator":"2023-043N","name":"ONEWEB-0557","alt_names":[],"object_type":"PAYLOAD","status":"ACTIVE","operator":null,"country":"UK","launch_date":"2023-03-26","launch_site_code":"SRILR","launch_vehicle":null,"mission":null,"orbit_class":"UNKNOWN","rcs_meters":null,"size_class":null,"mass_kg":null,"dimensions":null,"purposes":["comms"],"wikipedia_slug":null,"has_3d_model":false,"image_url":null,"decayed_at":null,"tle_current":{"epoch":"2026-09-20T03:24:03.767328Z","epoch_age_seconds":49067,"freshness":"FRESH","line1":"1 56058U 23043N   26263.14171027  .00000042  00000+0  76962-4 0  9997","line2":"2 56058  87.9157 209.9308 0002954  97.1747 262.9720 13.16594865171453","mean_motion":13.16594865,"eccentricity":0.0002954,"inclination_deg":87.9157,"raan_deg":209.9308,"arg_perigee_deg":97.1747,"mean_anomaly_deg":262.972,"bstar":7.6962e-5,"rev_number":17145,"period_min":109.37305303861,"perigee_km":1195.5164164417,"apogee_km":1199.9922530423,"semimajor_km":7575.891334742,"source":"CELESTRAK","updated_at":"2026-09-20T09:00:44.788885Z"}}}